Regional Weather Roundup
Issued by NWS

Home | Current Version | Previous Version | Graphics & Text | Print | Product List | Glossary On
Versions: 1 2 3 4 5 6 7 8 9 10 11 12 13 14 15 16 17 18 19 20 21 22 23 24 25 26 27 28 29 30 31 32 33 34 35 36 37 38 39 40 41 42 43 44 45 46 47 48 49 50
000
ASUS44 KMEG 020810
RWRTN
TENNESSEE HOURLY STATE WEATHER ROUNDUP
NATIONAL WEATHER SERVICE MEMPHIS TN
300 AM CDT SUN AUG 02 2015

TNZ002-004-019-021-049-052-054-088>092-020900-
WEST TENNESSEE

CITY           SKY/WX    TMP DP  RH WIND       PRES   REMARKS
MEMPHIS INTL   CLEAR     80  67  64 VRB3      29.96S
NWS MEMPHIS      N/A     71 N/A N/A MISG        N/A
JACKSON        CLEAR     71  67  87 CALM      29.97S
DYERSBURG        N/A    N/A N/A N/A MISG        N/A
PARIS          CLEAR     66  64  94 CALM      29.98F
LEXINGTON      CLEAR     70  70 100 CALM      29.97S
$$

TNZ008-025-027-028-033-062-065-066-020900-
NORTH MIDDLE TENNESSEE

CITY           SKY/WX    TMP DP  RH WIND       PRES   REMARKS
NASHVILLE      PTCLDY    68  63  84 CALM      29.99S
CLARKSVILLE    FOG       63  62  97 CALM      29.98F VSB 1/2
SMYRNA         CLEAR     62  61  97 CALM      29.99F
CROSSVILLE     CLEAR     62  59  90 CALM      30.04S
$$

TNZ061-075-076-078-094-096-097-020900-
SOUTH MIDDLE TENNESSEE

CITY           SKY/WX    TMP DP  RH WIND       PRES   REMARKS
FAYETTEVILLE   CLEAR     68  64  88 NE5       29.98F
TULLAHOMA      CLEAR     64  61  88 CALM      30.00F
WINCHESTER     CLEAR     63  63 100 CALM      29.99F
MCMINNVILLE    MOCLDY    64  64 100 CALM      30.00S VSB 1/2
COLUMBIA       CLEAR     70  70 100 CALM      29.97S
SHELBYVILLE    CLEAR     66  64  94 CALM      29.99F
$$

TNZ017-018-042-046-047-020900-
NORTHEAST TENNESSEE

CITY           SKY/WX    TMP DP  RH WIND       PRES   REMARKS
TRI CITIES     PTCLDY    61  59  93 CALM      30.02S
ELIZABETHTON   SUNNY     57  57 100 CALM      30.03S
$$

TNZ012-013-036-069-073-074-020900-
CENTRAL EAST TENNESSEE

CITY           SKY/WX    TMP DP  RH WIND       PRES   REMARKS
KNOXVILLE      PTCLDY    68  64  87 CALM      29.98S
OAK RIDGE      CLEAR     65  62  90 CALM      30.00S
GATLINBURG     SUNNY     63  61  94 CALM      29.99S
MORRISTOWN     SUNNY     64  63  94 CALM      30.02R
$$

TNZ083-085-099-020900-
SOUTHEAST TENNESSEE

CITY           SKY/WX    TMP DP  RH WIND       PRES   REMARKS
CHATTANOOGA    CLEAR     71  66  84 CALM      29.97S
$$

SKY/WX REPORTED AS FAIR MEANS FEW OR NO CLOUDS BELOW
12 THOUSAND FEET.



USA.gov is the U.S. government's official web portal to all federal, state and local government web resources and services.